RH
26 27 29 30 29 40 38 31 36 48 50 46 46 47 48 49 50 56 52 40 37 37 43 53 59 85 91 69 72 71 53 45 39 36 35 38 42 45 44 48 51 53 60 63 62
23 27 31 30 32 32 30 33 42 48 48 48 54 73 78 81 83 80 78 66 49 52 65 68 61 70 99 76 78 70 52 40 38 36 35 38 41 44 46 50 52 57 63 67 61
25 29 30 29 29 32 36 41 42 44 49 59 76 73 76 82 87 88 85 85 79 73 77 71 68 69 93 92 80 71 55 48 39 35 37 39 44 46 45 51 50 54 62 64 65
23 22 21 22 26 30 39 40 39 41 50 63 73 78 78 79 90 92 93 94 94 89 97 90 78 71 77 96 71 75 60 50 39 36 39 42 47 46 49 54 55 60 64 64 66
21 22 23 26 32 35 40 37 35 47 56 73 82 86 89 86 89 86 90 96 98 85 97 98 89 84 75 83 78 66 67 51 41 40 44 46 47 47 54 54 55 61 61 64 63
21 23 26 30 35 38 39 36 33 40 50 76 76 74 85 93 85 85 87 92 97 94 94 98 98 82 80 91 79 72 67 47 41 42 47 46 50 53 58 60 62 61 65 66 61
15 18 22 32 31 37 37 35 34 34 48 73 74 65 69 80 78 75 82 78 86 94 98 96 81 97 87 80 80 73 68 53 46 44 52 50 53 53 59 64 62 65 71 66 59
14 18 20 25 33 40 43 38 38 40 46 64 73 57 58 62 61 64 72 78 75 86 96 96 87 87 91 97 81 78 64 57 51 48 55 49 43 54 60 67 65 69 72 66 57
14 18 20 24 33 46 47 44 45 49 48 47 51 53 58 52 52 64 67 73 68 82 90 93 84 96 97 98 93 86 69 63 53 52 56 49 45 55 63 68 70 73 75 67 54
14 17 18 24 31 45 50 50 55 57 64 62 63 55 51 53 58 67 75 79 70 76 87 90 97 89 91 95 96 90 66 57 42 49 54 51 53 56 65 69 69 74 79 73 56
14 16 18 23 29 40 45 52 60 71 77 96 96 73 58 51 62 67 83 86 81 78 79 89 83 82 98 97 69 71 54 44 47 52 51 52 56 57 68 75 76 80 79 80 64
14 16 18 23 28 36 39 47 56 64 85 95 95 95 69 57 58 70 80 95 87 80 78 70 77 80 85 89 81 65 54 50 50 59 57 62 61 62 69 72 72 75 81 84 72
14 15 18 21 29 33 33 40 50 62 83 98 98 98 78 67 69 70 94 96 96 90 75 73 87 94 97 89 73 65 51 44 46 61 60 57 66 64 66 71 71 72 80 81 75
15 15 19 23 27 35 33 39 49 65 87 98 94 94 87 78 71 77 94 91 94 89 81 90 94 96 97 75 71 64 57 46 54 54 59 56 54 58 63 69 71 78 84 83 76
16 16 20 23 27 34 34 39 50 67 93 97 95 82 75 73 79 91 94 88 84 67 72 94 90 88 86 75 60 53 53 52 53 56 56 54 53 49 62 71 71 75 79 84 82
18 17 20 24 27 33 33 36 48 68 93 95 97 90 82 89 94 90 85 80 82 74 81 85 76 70 68 68 64 61 56 55 60 60 66 54 50 52 52 58 68 76 85 81 78
20 16 19 23 29 31 34 32 57 73 77 88 90 82 82 88 81 78 75 77 78 79 81 66 65 64 61 60 62 65 60 76 72 82 68 59 52 46 49 51 60 73 75 76 73
22 19 17 21 26 31 33 38 59 70 71 72 73 78 74 76 78 74 75 73 69 69 66 67 74 63 58 51 46 50 55 61 75 70 54 54 57 47 45 46 53 65 65 63 68
26 21 18 19 22 28 34 46 62 60 63 65 63 62 68 67 62 60 71 73 78 76 73 68 67 65 58 53 44 47 48 46 44 48 56 51 50 50 46 47 49 56 62 58 61
31 26 22 18 20 25 35 47 52 52 52 56 62 64 65 65 65 67 67 69 68 65 66 62 63 59 58 54 46 41 41 46 42 57 53 45 47 41 41 37 41 47 52 55 55
36 31 27 22 19 24 38 40 46 48 51 53 54 57 61 62 61 66 64 65 65 64 66 67 58 58 53 49 42 42 40 38 38 39 45 42 36 32 36 41 38 39 47 52 55
36 41 31 27 27 32 36 36 36 42 46 48 51 55 55 55 59 59 62 61 61 63 66 61 56 57 54 53 49 42 36 34 36 36 34 32 31 35 36 37 42 39 40 43 45
34 38 38 32 43 38 32 29 30 32 35 41 46 50 50 50 56 55 58 58 60 63 64 61 52 58 61 56 53 47 42 37 36 36 33 34 24 30 33 38 38 39 41 41 43
31 49 43 41 40 35 33 30 29 28 29 33 36 40 45 47 49 52 52 54 58 60 59 61 57 50 46 48 51 51 50 44 41 39 33 29 29 32 32 33 37 38 39 39 42
36 46 47 54 49 44 39 36 33 33 30 29 34 36 40 44 46 49 51 53 55 59 60 59 64 59 59 60 58 57 51 50 47 43 43 33 34 33 34 32 33 36 39 39 40
34 45 51 55 54 50 44 43 38 35 36 33 33 34 38 43 44 50 54 54 56 56 64 64 70 67 66 65 61 58 55 55 51 47 40 39 37 39 40 38 38 37 38 38 39
35 42 49 62 61 58 53 47 44 41 35 33 32 33 36 34 35 39 41 47 53 58 63 70 71 72 69 71 76 71 57 57 51 47 41 41 34 43 42 42 42 41 41 39 39